Location: Bouillancy
(49.1149°N, 2.9308°E)
Time: 08:07:03
(UTC+00:00)

Cosmos 1844 Rocket - Pass Details

Date: 30 September 2020
Orbit: 823 x 846 km, 71.0° (Epoch: 29 October)

Event Time Altitude Azimuth Distance (km) Brightness Sun altitude
Rises 17:55:19 0° 210° (SSW) 3,350 6.2 -5.2°
Reaches altitude 10° 17:57:44 10° 212° (SSW) 2,423 5.5 -5.6°
Maximum altitude 18:03:18 79° 299° (WNW) 850 2.9 -6.5°
Drops below altitude 10° 18:08:56 10° 27° (NNE) 2,452 4.9 -7.5°
Sets 18:11:23 0° 28° (NNE) 3,394 5.6 -7.9°
